Wind_Speed
22 19 25 25 24 25 25 30 38 38 39 32 21 17 18 18 20 16 16 17 17 18 20 19 17 14 14 8 9 6 10 9 10 12 11 10 7 8 7 7 7 8 9
21 21 23 24 25 24 26 28 34 38 39 41 44 30 19 22 20 22 20 20 21 21 21 22 23 20 18 14 12 10 9 14 13 14 14 15 10 9 9 8 9 6 7
20 20 21 24 24 23 26 28 32 35 35 41 39 46 38 23 26 25 25 25 24 24 25 24 22 23 24 19 17 16 12 14 18 17 17 16 15 13 12 10 8 6 6
17 19 22 23 26 28 26 27 31 35 39 44 48 44 41 50 22 30 32 29 30 29 27 27 29 26 22 23 23 20 14 16 17 22 22 18 20 19 17 15 11 8 7
16 19 22 26 28 31 33 31 32 36 41 43 45 49 40 42 49 21 32 37 33 32 33 32 29 31 28 24 23 24 24 24 22 23 25 26 22 23 21 19 15 11 8
21 21 24 27 30 32 33 35 36 36 39 43 43 47 49 46 42 49 23 33 39 37 34 36 35 32 33 32 31 25 29 29 25 27 28 30 28 27 25 23 20 16 11
25 26 25 29 32 35 35 35 38 38 38 40 42 42 48 51 46 45 49 19 34 41 42 38 38 38 35 34 34 31 31 34 33 30 29 35 35 32 30 28 25 21 17
26 31 30 31 32 35 35 35 39 41 42 43 42 44 48 52 48 41 50 44 19 35 44 45 43 40 40 38 37 36 34 38 38 35 35 34 40 38 35 33 30 26 22
28 30 32 33 36 38 38 37 39 45 46 46 43 41 44 47 44 41 46 44 45 26 37 47 47 46 44 43 41 42 41 37 42 41 39 35 41 43 41 38 35 31 27
33 33 36 37 40 40 39 39 38 45 46 49 48 44 43 45 43 41 43 47 51 54 24 36 49 50 49 48 47 45 47 46 43 45 44 41 38 46 44 43 39 36 32
35 36 39 41 42 42 41 36 40 44 49 50 50 51 47 46 46 48 44 47 55 56 49 24 37 52 53 52 52 51 49 50 50 46 48 47 43 43 48 47 44 40 38
38 38 39 41 44 44 41 40 43 44 50 51 52 51 48 51 52 51 40 35 45 52 56 45 26 37 53 56 56 56 55 54 54 53 50 52 50 46 47 51 49 46 42
43 43 44 46 48 48 44 46 44 43 45 52 55 53 47 49 52 49 43 41 49 60 70 64 35 27 38 54 60 62 61 60 58 57 58 56 55 52 50 51 53 49 46
48 48 50 50 56 48 43 43 46 46 48 54 58 56 46 52 53 45 42 50 52 63 67 65 56 33 31 43 59 67 68 66 65 64 60 62 61 58 54 54 55 54 51
48 50 52 54 47 48 47 46 45 48 54 55 52 55 54 55 55 45 39 48 50 64 75 76 71 42 29 39 49 65 71 72 70 70 66 66 66 65 61 58 57 58 56
54 57 50 50 50 49 47 50 50 55 57 56 55 61 62 60 57 49 42 47 50 57 72 79 78 71 40 43 53 63 72 77 77 75 73 69 70 70 67 63 59 59 60
57 59 55 49 47 46 52 57 57 59 59 65 66 71 65 61 56 56 47 49 51 61 77 88 80 82 67 51 55 58 72 77 82 81 79 76 72 74 72 68 64 60 59
49 53 56 47 46 55 57 62 65 66 66 77 81 76 68 60 56 49 47 52 58 64 81 84 87 88 79 54 52 53 61 75 78 84 81 81 78 74 74 74 69 64 61
46 51 51 49 52 58 63 66 65 71 72 84 82 84 73 57 54 50 51 57 71 81 85 85 89 93 74 63 51 53 48 56 75 79 85 84 84 79 77 78 76 70 65
54 50 57 56 54 59 68 68 71 79 88 91 88 86 71 50 39 54 55 69 74 89 91 93 91 86 73 64 54 51 49 46 58 77 81 86 86 87 82 79 81 78 71
62 66 60 54 61 69 76 84 85 84 90 95 84 86 59 58 39 54 60 77 92 97 94 92 88 82 70 60 51 49 49 47 51 72 80 82 88 90 88 83 82 83 78
50 53 67 70 68 76 81 85 86 91 93 91 91 71 68 60 46 61 75 92 93 102 98 95 86 73 69 59 47 45 45 46 53 62 75 81 85 91 93 88 83 84 83
52 55 65 72 85 86 85 86 89 92 92 86 74 73 60 56 62 82 90 96 100 101 100 93 84 74 68 57 45 44 43 44 51 57 65 78 77 87 93 89 86 81 84
51 62 67 75 86 89 87 86 83 88 82 80 78 73 73 74 85 89 96 101 101 100 102 93 75 71 63 51 46 42 43 44 49 51 59 71 72 78 84 92 89 85 82
59 58 65 75 82 82 82 79 77 74 72 78 70 68 75 84 90 96 96 96 98 103 101 88 80 64 60 50 45 41 39 44 46 49 54 54 66 71 77 88 94 91 86
58 64 69 74 79 80 80 82 81 71 69 73 77 82 84 92 96 96 100 103 103 99 93 87 74 64 53 47 40 36 36 42 44 48 39 52 66 73 79 90 95 95 89
Wind_Direction
32 30 28 31 27 31 23 29 24 28 23 20 354 314 283 290 283 272 261 263 264 257 251 236 252 259 252 253 267 280 252 246 230 212 215 220 185 182 166 144 110 88 87
32 27 23 22 25 30 26 21 19 19 26 28 25 358 312 270 271 270 265 256 258 257 254 250 252 253 251 243 250 240 251 243 237 222 217 216 212 185 170 155 140 117 101
39 29 24 22 19 19 20 18 8 6 9 12 7 16 14 310 268 261 261 257 250 255 255 254 249 243 249 243 246 239 240 245 234 231 221 217 218 199 182 168 159 140 151
28 21 11 6 5 7 6 6 2 358 0 6 11 5 13 17 302 267 257 253 250 247 251 250 249 244 244 246 241 237 244 248 242 229 229 219 219 207 192 176 171 165 158
347 351 354 355 357 1 2 1 357 355 354 355 0 5 4 3 16 315 261 257 253 248 246 248 246 243 241 237 237 236 230 249 242 236 231 223 217 219 207 195 182 185 173
337 339 345 348 351 351 353 356 352 351 349 349 351 1 1 358 359 10 328 260 252 252 246 244 244 244 243 237 235 241 236 233 242 234 232 226 219 220 219 207 203 200 197
337 331 328 337 341 344 345 348 350 346 344 345 343 351 357 356 354 358 6 313 255 246 247 244 240 242 243 238 236 237 234 232 229 235 233 225 221 218 219 217 211 213 213
335 335 326 329 330 334 338 337 343 341 341 342 340 342 348 350 352 355 5 7 299 251 244 245 242 239 240 241 233 230 231 233 230 227 229 226 220 219 216 218 219 215 220
331 329 326 322 323 323 329 332 330 338 337 338 337 337 344 347 349 347 360 8 13 325 254 243 244 241 238 238 238 231 233 236 233 230 226 225 220 218 217 216 218 221 218
330 326 324 321 317 314 326 328 329 331 333 334 334 332 337 342 348 345 342 353 358 354 314 254 243 243 241 238 236 236 234 235 235 232 229 226 222 219 218 217 218 220 222
327 326 324 320 320 318 321 323 324 327 329 332 332 333 331 334 334 348 345 340 344 347 351 300 255 241 241 240 238 235 235 235 234 234 228 226 224 222 220 219 218 219 222
325 325 324 319 318 319 321 321 320 319 326 330 328 326 326 327 328 342 341 356 354 7 359 352 294 258 244 240 239 237 234 233 233 232 231 226 225 222 220 221 220 220 221
324 325 322 318 320 319 320 320 319 316 317 322 324 323 320 326 324 334 332 333 348 354 357 1 337 285 256 244 240 239 236 234 230 230 229 229 225 224 221 220 221 219 218
323 321 320 317 318 315 315 320 320 318 317 320 320 321 318 323 317 324 323 335 342 341 345 347 351 321 282 258 243 237 237 235 233 230 228 226 225 223 223 221 220 219 217
317 316 316 316 318 318 310 312 313 319 321 324 320 316 316 318 315 316 307 320 333 337 341 342 342 327 305 277 256 243 236 233 233 231 228 225 224 223 221 222 220 219 218
312 315 314 312 317 313 303 305 308 313 321 321 321 320 316 316 309 311 290 302 320 329 331 335 331 340 305 290 267 243 236 231 230 230 228 225 223 222 221 220 222 221 218
317 317 316 308 310 308 304 303 306 314 317 319 318 321 318 313 309 305 290 300 318 325 329 327 328 330 325 299 274 250 239 231 227 228 226 224 224 221 220 219 220 221 221
320 316 312 306 304 310 312 307 308 309 312 318 318 319 317 318 316 320 300 303 309 315 319 328 326 325 325 303 277 260 243 239 230 224 225 224 223 222 220 219 219 220 221
310 314 306 301 302 307 306 307 309 308 308 316 315 316 314 310 323 317 310 308 319 321 321 323 327 326 325 308 284 268 257 237 238 228 222 223 222 222 221 219 218 219 219
306 300 299 303 296 292 304 306 305 307 307 313 313 317 313 306 315 314 307 314 316 321 319 320 326 327 321 307 288 271 263 247 235 233 225 220 221 221 221 219 216 216 218
294 298 293 300 291 298 298 300 300 302 306 308 314 318 311 314 301 317 313 318 321 322 320 323 326 324 317 305 285 271 262 250 239 230 229 221 218 219 219 219 217 215 215
294 282 277 285 289 295 297 299 298 296 300 305 312 321 311 305 299 308 313 309 311 320 326 322 324 319 316 302 286 274 262 250 241 230 226 225 218 216 217 217 218 215 215
275 276 274 276 280 285 292 293 296 297 299 311 315 314 313 308 307 313 312 310 314 319 319 320 320 319 317 298 288 276 263 250 240 229 222 227 221 216 215 216 217 217 215
269 267 274 275 278 282 285 289 293 296 305 307 313 318 315 313 308 307 312 319 319 314 315 316 319 319 313 298 287 275 262 250 237 228 217 223 225 216 216 215 217 216 216
269 268 268 271 276 279 283 288 293 299 304 306 311 314 309 303 306 315 315 311 309 310 313 315 319 318 313 300 286 274 258 249 237 229 214 212 223 217 215 213 216 217 215
267 264 272 278 278 282 285 288 290 297 306 307 304 305 303 306 306 308 307 308 309 310 313 315 319 319 311 299 284 269 253 243 235 231 205 209 218 213 212 212 213 214 215
Height
10959 10958 10956 10954 10950 10947 10942 10938 10934 10928 10924 10920 10916 10914 10914 10914 10915 10915 10915 10916 10917 10917 10920 10922 10922 10923 10924 10923 10926 10927 10927 10928 10929 10929 10930 10931 10931 10932 10934 10934 10935 10935 10935
10959 10958 10956 10955 10951 10948 10943 10939 10933 10930 10925 10920 10915 10909 10906 10907 10907 10907 10909 10910 10911 10912 10913 10915 10917 10918 10919 10920 10921 10923 10924 10926 10927 10928 10928 10929 10931 10932 10933 10934 10935 10935 10936
10960 10960 10957 10954 10951 10947 10942 10937 10932 10929 10924 10920 10916 10910 10903 10899 10899 10899 10900 10902 10905 10905 10907 10909 10911 10913 10914 10916 10917 10919 10920 10922 10923 10925 10926 10927 10929 10931 10932 10934 10934 10935 10935
10961 10958 10956 10953 10950 10945 10941 10936 10931 10924 10920 10915 10911 10907 10903 10897 10891 10890 10891 10893 10895 10897 10899 10901 10904 10906 10908 10911 10913 10915 10917 10918 10920 10921 10923 10924 10926 10928 10930 10931 10933 10934 10934
10961 10957 10954 10950 10946 10941 10937 10933 10928 10922 10915 10910 10907 10902 10899 10894 10889 10883 10882 10883 10886 10888 10891 10892 10895 10898 10901 10904 10907 10909 10910 10914 10915 10916 10918 10921 10922 10925 10927 10929 10930 10932 10933
10959 10954 10951 10946 10941 10937 10932 10928 10925 10922 10915 10910 10904 10899 10895 10890 10886 10881 10874 10873 10874 10877 10881 10884 10885 10888 10892 10896 10898 10901 10903 10905 10909 10911 10913 10915 10918 10921 10923 10925 10927 10929 10931
10955 10951 10947 10942 10937 10932 10928 10924 10921 10918 10913 10907 10901 10896 10891 10885 10880 10875 10869 10862 10863 10865 10868 10872 10876 10878 10881 10885 10889 10892 10894 10897 10900 10904 10906 10908 10911 10914 10918 10921 10923 10926 10928
10950 10946 10942 10938 10934 10929 10925 10921 10916 10912 10907 10902 10897 10891 10886 10880 10874 10870 10863 10857 10852 10853 10856 10860 10864 10868 10872 10875 10879 10883 10886 10888 10891 10894 10898 10900 10903 10906 10910 10914 10917 10921 10924
10945 10941 10937 10933 10930 10925 10920 10915 10910 10905 10900 10897 10893 10888 10882 10875 10869 10864 10858 10853 10851 10848 10847 10849 10853 10856 10859 10864 10869 10873 10876 10879 10882 10886 10889 10892 10894 10898 10903 10906 10910 10914 10918
10939 10935 10931 10927 10924 10919 10915 10909 10903 10898 10894 10889 10884 10880 10876 10871 10867 10861 10854 10849 10845 10841 10835 10835 10840 10845 10849 10852 10856 10861 10865 10869 10872 10875 10880 10884 10886 10890 10895 10899 10903 10907 10911
10934 10930 10925 10921 10917 10913 10908 10902 10898 10893 10887 10882 10876 10873 10868 10862 10859 10858 10853 10847 10840 10833 10829 10825 10825 10828 10833 10839 10843 10847 10852 10856 10860 10864 10868 10873 10878 10881 10886 10891 10895 10899 10905
10929 10925 10921 10917 10911 10906 10901 10897 10892 10887 10882 10877 10871 10866 10860 10852 10847 10844 10843 10839 10834 10828 10824 10819 10817 10817 10821 10824 10829 10832 10836 10840 10846 10851 10856 10861 10866 10871 10875 10881 10886 10891 10896
10922 10918 10914 10909 10904 10899 10893 10889 10886 10882 10877 10872 10866 10860 10853 10846 10839 10835 10827 10824 10819 10818 10816 10811 10807 10805 10805 10809 10814 10818 10821 10824 10829 10835 10842 10848 10854 10860 10865 10870 10876 10882 10887
10912 10907 10903 10899 10894 10889 10886 10881 10876 10873 10869 10864 10857 10851 10847 10840 10831 10827 10820 10811 10805 10801 10801 10800 10801 10797 10795 10795 10795 10796 10802 10809 10813 10818 10825 10833 10840 10847 10854 10859 10865 10872 10878
10906 10901 10895 10889 10885 10881 10877 10872 10867 10863 10858 10852 10847 10841 10836 10830 10823 10819 10809 10803 10797 10790 10782 10784 10785 10785 10782 10778 10775 10777 10780 10788 10794 10801 10806 10815 10823 10832 10840 10847 10852 10859 10866
10894 10889 10887 10882 10876 10870 10864 10860 10856 10851 10846 10841 10836 10832 10825 10817 10811 10807 10798 10793 10789 10785 10776 10770 10764 10763 10762 10760 10754 10752 10753 10761 10771 10779 10789 10797 10807 10816 10825 10834 10841 10847 10854
10881 10873 10869 10866 10863 10860 10854 10848 10844 10839 10835 10831 10826 10821 10816 10805 10798 10792 10786 10782 10779 10773 10769 10754 10752 10741 10737 10734 10726 10729 10730 10736 10744 10755 10766 10777 10787 10798 10809 10819 10828 10835 10843
10869 10861 10854 10851 10848 10845 10842 10835 10831 10826 10821 10817 10812 10805 10801 10793 10784 10781 10775 10772 10767 10760 10757 10748 10727 10722 10713 10707 10702 10703 10710 10714 10723 10733 10746 10757 10768 10780 10793 10804 10813 10822 10830
10854 10850 10842 10837 10834 10830 10826 10822 10815 10812 10807 10804 10797 10794 10786 10778 10772 10766 10763 10758 10753 10745 10737 10729 10716 10697 10688 10679 10679 10680 10688 10694 10699 10709 10721 10732 10747 10759 10769 10782 10795 10806 10815
10842 10833 10832 10827 10821 10816 10813 10808 10802 10797 10793 10788 10784 10777 10769 10764 10757 10757 10749 10743 10735 10727 10715 10706 10693 10680 10670 10659 10657 10659 10663 10671 10678 10683 10695 10709 10724 10735 10748 10760 10774 10787 10798
10834 10822 10820 10818 10810 10807 10801 10796 10791 10784 10776 10774 10770 10764 10756 10751 10743 10739 10734 10726 10718 10708 10696 10683 10672 10663 10651 10643 10638 10636 10640 10648 10654 10657 10668 10684 10698 10715 10726 10740 10754 10767 10780
10833 10824 10813 10810 10799 10793 10789 10781 10775 10769 10764 10762 10757 10751 10746 10738 10730 10725 10716 10709 10696 10686 10672 10663 10654 10646 10632 10622 10617 10615 10617 10624 10631 10639 10645 10656 10673 10687 10705 10721 10734 10751 10766
10825 10817 10806 10800 10785 10783 10778 10770 10761 10755 10751 10746 10742 10737 10730 10725 10718 10708 10697 10687 10676 10666 10659 10648 10639 10627 10615 10599 10599 10597 10598 10605 10609 10619 10631 10635 10650 10670 10686 10707 10722 10735 10752
10812 10801 10794 10787 10775 10769 10765 10755 10748 10743 10737 10732 10725 10719 10713 10704 10699 10692 10679 10660 10651 10647 10640 10633 10623 10611 10595 10585 10579 10581 10582 10587 10592 10601 10613 10617 10634 10654 10671 10690 10704 10719 10733
10797 10789 10780 10768 10758 10753 10748 10740 10735 10727 10723 10717 10711 10706 10700 10690 10677 10667 10660 10651 10638 10627 10618 10610 10602 10592 10579 10568 10564 10566 10567 10570 10575 10581 10594 10615 10622 10639 10654 10668 10682 10697 10712
10778 10773 10766 10754 10745 10737 10731 10727 10723 10716 10709 10702 10697 10688 10681 10672 10661 10651 10639 10629 10618 10605 10597 10587 10580 10572 10563 10553 10550 10551 10552 10554 10559 10565 10589 10595 10597 10611 10626 10637 10655 10676 10697